STARLINK-36690

Last updated on Wed Mar 25 2026 00:02:05 GMT+0000 (Coordinated Universal Time)

1 67913U 26036K 26083.50002314 -.01852002 00000+0 -56107-1 0 9996 2 67913 42.9997 161.6511 0001666 288.3757 184.8194 15.36808823 6025
UTC large
Height (km)
Speed (km/s)
/
Latitude / Longitude
Inclination (degrees)
Orbital Period (minutes)
Azimuth
Elevation
Range (km)
Doppler Factor

Next 0 passes for location: London (51.5072 / 0.1276)

Sorry there are no passes over London.